When you browse on this site, cookies collect data to enhance your experience and personalize the content and advertising you see.
Visit our Privacy Policy to learn more. By continuing to use the site, you agree to this use of cookies and data.
  • In France
  • List of Countries
  • For 7 days
  • Water Temperature
  • Weather Map
  • Weather Widgets
  • user-avatar
    Login

    Hourly Weather Boma

    Today, 21 November, Thursday

    Time Temperature Precipitation Wind Pressure Humidity
    00:00 +24°C° 0 mm 0 mps 699 mmHg 60%
    01:00 +24°C° 0 mm 0 mps 699 mmHg 61%
    02:00 +23°C° 0 mm 0 mps 699 mmHg 64%
    03:00 +22°C° 0 mm 0 mps 698 mmHg 68%
    04:00 +21°C° 0 mm 0 mps 698 mmHg 71%
    05:00 +21°C° 0 mm 0 mps 698 mmHg 71%
    06:00 +22°C° 0 mm 0 mps 699 mmHg 71%
    07:00 +22°C° 0 mm 0 mps 700 mmHg 71%
    08:00 +25°C° 0 mm 0 mps 700 mmHg 58%
    09:00 +28°C° 0 mm 0 mps 700 mmHg 45%
    10:00 +32°C° 0 mm 0 mps 700 mmHg 32%
    11:00 +35°C° 0 mm 1 mps 700 mmHg 28%
    12:00 +36°C° 0 mm 1 mps 699 mmHg 23%
    13:00 +38°C° 0 mm 2 mps 699 mmHg 19%
    14:00 +38°C° 0 mm 2 mps 698 mmHg 19%
    15:00 +36°C° 0 mm 1 mps 697 mmHg 20%
    16:00 +36°C° 0 mm 1 mps 697 mmHg 20%
    17:00 +33°C° 0 mm 1 mps 697 mmHg 26%
    18:00 +30°C° 0 mm 1 mps 697 mmHg 32%
    19:00 +25°C° 0 mm 0 mps 698 mmHg 38%
    20:00 +26°C° 0 mm 1 mps 698 mmHg 49%
    21:00 +25°C° 0 mm 1 mps 699 mmHg 61%
    22:00 +24°C° 0 mm 1 mps 699 mmHg 72%
    23:00 +23°C° 0 mm 1 mps 699 mmHg 80%

    Tomorrow, 22 November, Friday

    Time Temperature Precipitation Wind Pressure Humidity
    00:00 +23°C° 0 mm 1 mps 699 mmHg 87%
    01:00 +22°C° 0 mm 1 mps 699 mmHg 95%
    02:00 +23°C° 0 mm 1 mps 699 mmHg 92%
    03:00 +23°C° 0 mm 1 mps 699 mmHg 89%
    04:00 +24°C° 0 mm 2 mps 699 mmHg 86%
    05:00 +24°C° 0 mm 1 mps 699 mmHg 84%
    06:00 +24°C° 0 mm 1 mps 700 mmHg 83%
    07:00 +24°C° 0 mm 1 mps 701 mmHg 81%
    08:00 +25°C° 0 mm 1 mps 701 mmHg 76%
    09:00 +27°C° 0 mm 1 mps 701 mmHg 70%
    10:00 +28°C° 0 mm 1 mps 701 mmHg 64%
    11:00 +30°C° 0 mm 1 mps 700 mmHg 54%
    12:00 +32°C° 0 mm 1 mps 700 mmHg 45%
    13:00 +35°C° 0 mm 1 mps 700 mmHg 35%
    14:00 +34°C° 0 mm 1 mps 699 mmHg 36%
    15:00 +33°C° 0 mm 1 mps 698 mmHg 37%
    16:00 +33°C° 0 mm 1 mps 698 mmHg 39%
    17:00 +30°C° 0 mm 1 mps 698 mmHg 49%
    18:00 +28°C° 0 mm 2 mps 698 mmHg 59%
    19:00 +26°C° 0 mm 2 mps 699 mmHg 70%
    20:00 +25°C° 0 mm 1 mps 699 mmHg 75%
    21:00 +24°C° 0 mm 1 mps 699 mmHg 81%
    22:00 +23°C° 0 mm 1 mps 700 mmHg 86%
    23:00 +23°C° 0 mm 1 mps 700 mmHg 89%

    Day after tomorrow, 23 November, Saturday

    Time Temperature Precipitation Wind Pressure Humidity
    00:00 +22°C° 0 mm 1 mps 700 mmHg 91%
    01:00 +22°C° 0 mm 1 mps 700 mmHg 94%
    02:00 +22°C° 0 mm 1 mps 700 mmHg 93%
    03:00 +22°C° 0 mm 1 mps 699 mmHg 92%
    04:00 +23°C° 0 mm 2 mps 699 mmHg 91%
    05:00 +23°C° 0 mm 1 mps 700 mmHg 89%
    06:00 +23°C° 0 mm 1 mps 700 mmHg 86%
    07:00 +23°C° 0 mm 1 mps 700 mmHg 84%
    08:00 +25°C° 0 mm 1 mps 701 mmHg 78%
    09:00 +26°C° 0 mm 1 mps 701 mmHg 71%
    10:00 +28°C° 0 mm 1 mps 701 mmHg 65%
    11:00 +30°C° 0 mm 1 mps 701 mmHg 56%
    12:00 +32°C° 0 mm 1 mps 700 mmHg 47%
    13:00 +34°C° 0 mm 1 mps 700 mmHg 39%
    14:00 +34°C° 0 mm 1 mps 699 mmHg 40%
    15:00 +33°C° 0 mm 1 mps 698 mmHg 41%
    16:00 +32°C° 0 mm 1 mps 698 mmHg 43%
    17:00 +30°C° 0 mm 1 mps 698 mmHg 53%
    18:00 +28°C° 0 mm 1 mps 698 mmHg 63%
    19:00 +25°C° 0 mm 1 mps 698 mmHg 73%
    20:00 +23°C° 0 mm 0 mps 699 mmHg 75%
    21:00 +22°C° 0 mm 0 mps 700 mmHg 78%
    22:00 +21°C° 0 mm 0 mps 700 mmHg 80%
    23:00 +21°C° 0 mm 0 mps 700 mmHg 82%

    24 November, Sunday

    Time Temperature Precipitation Wind Pressure Humidity
    00:00 +20°C° 0 mm 0 mps 700 mmHg 84%
    01:00 +20°C° 0 mm 0 mps 699 mmHg 86%
    02:00 +20°C° 0 mm 0 mps 699 mmHg 89%
    03:00 +19°C° 0 mm 0 mps 699 mmHg 92%
    04:00 +19°C° 0 mm 0 mps 698 mmHg 95%
    05:00 +19°C° 0 mm 0 mps 699 mmHg 93%
    06:00 +20°C° 0 mm 0 mps 699 mmHg 92%
    07:00 +20°C° 0 mm 0 mps 700 mmHg 90%
    08:00 +24°C° 0 mm 0 mps 700 mmHg 74%
    09:00 +28°C° 0 mm 0 mps 701 mmHg 59%
    10:00 +32°C° 0 mm 0 mps 701 mmHg 44%
    11:00 +33°C° 0 mm 0 mps 700 mmHg 37%
    12:00 +35°C° 0 mm 1 mps 700 mmHg 31%
    13:00 +36°C° 0 mm 1 mps 699 mmHg 24%
    14:00 +35°C° 0 mm 1 mps 698 mmHg 26%
    15:00 +36°C° 0 mm 2 mps 698 mmHg 27%
    16:00 +35°C° 0 mm 2 mps 697 mmHg 29%
    17:00 +31°C° 0 mm 1 mps 698 mmHg 35%
    18:00 +29°C° 0 mm 1 mps 698 mmHg 41%
    19:00 +26°C° 0 mm 1 mps 698 mmHg 47%
    20:00 +25°C° 0 mm 1 mps 698 mmHg 53%
    21:00 +22°C° 0 mm 0 mps 699 mmHg 59%
    22:00 +21°C° 0 mm 0 mps 699 mmHg 65%
    23:00 +21°C° 0 mm 0 mps 699 mmHg 66%

    25 November, Monday

    Time Temperature Precipitation Wind Pressure Humidity
    00:00 +21°C° 0 mm 0 mps 699 mmHg 67%
    01:00 +20°C° 0 mm 0 mps 699 mmHg 68%
    02:00 +20°C° 0 mm 0 mps 699 mmHg 70%
    03:00 +20°C° 0 mm 0 mps 699 mmHg 73%
    04:00 +19°C° 0 mm 0 mps 698 mmHg 75%
    05:00 +20°C° 0 mm 0 mps 699 mmHg 75%
    06:00 +20°C° 0 mm 0 mps 699 mmHg 74%
    07:00 +20°C° 0 mm 0 mps 700 mmHg 73%
    08:00 +24°C° 0 mm 0 mps 700 mmHg 64%
    09:00 +27°C° 0 mm 0 mps 701 mmHg 54%
    10:00 +30°C° 0 mm 0 mps 701 mmHg 44%
    11:00 +34°C° 0 mm 1 mps 700 mmHg 39%
    12:00 +35°C° 0 mm 1 mps 700 mmHg 34%
    13:00 +36°C° 0 mm 1 mps 699 mmHg 30%
    14:00 +35°C° 0 mm 1 mps 699 mmHg 33%
    15:00 +34°C° 0 mm 1 mps 698 mmHg 36%
    16:00 +33°C° 0 mm 1 mps 698 mmHg 39%
    17:00 +31°C° 0 mm 1 mps 698 mmHg 46%
    18:00 +29°C° 0 mm 1 mps 698 mmHg 53%
    19:00 +27°C° 0 mm 1 mps 698 mmHg 60%
    20:00 +26°C° 0 mm 1 mps 698 mmHg 63%
    21:00 +23°C° 0 mm 0 mps 699 mmHg 67%
    22:00 +22°C° 0 mm 0 mps 699 mmHg 70%
    23:00 +22°C° 0 mm 0 mps 699 mmHg 70%

    26 November, Tuesday

    Time Temperature Precipitation Wind Pressure Humidity
    00:00 +22°C° 0 mm 0 mps 699 mmHg 71%
    01:00 +22°C° 0 mm 0 mps 698 mmHg 71%
    02:00 +22°C° 0 mm 0 mps 698 mmHg 73%
    03:00 +21°C° 0 mm 0 mps 698 mmHg 76%
    04:00 +21°C° 0 mm 0 mps 698 mmHg 78%
    05:00 +21°C° 0.1 mm 0 mps 698 mmHg 80%
    06:00 +21°C° 0.1 mm 0 mps 699 mmHg 81%
    07:00 +21°C° 0.1 mm 0 mps 699 mmHg 82%
    08:00 +23°C° 0.2 mm 0 mps 700 mmHg 76%
    09:00 +25°C° 0.2 mm 0 mps 700 mmHg 69%
    10:00 +27°C° 0.2 mm 0 mps 700 mmHg 63%
    11:00 +31°C° 0.4 mm 1 mps 700 mmHg 57%
    12:00 +32°C° 0.4 mm 1 mps 699 mmHg 51%
    13:00 +34°C° 0.4 mm 1 mps 698 mmHg 45%
    14:00 +33°C° 0.1 mm 1 mps 698 mmHg 45%
    15:00 +33°C° 0.1 mm 1 mps 698 mmHg 45%
    16:00 +32°C° 0.1 mm 1 mps 697 mmHg 45%
    17:00 +30°C° 0 mm 1 mps 697 mmHg 53%
    18:00 +28°C° 0 mm 1 mps 697 mmHg 61%
    19:00 +26°C° 0 mm 1 mps 698 mmHg 69%
    20:00 +25°C° 0.1 mm 1 mps 698 mmHg 74%
    21:00 +23°C° 0.1 mm 0 mps 698 mmHg 78%
    22:00 +22°C° 0.1 mm 0 mps 699 mmHg 83%
    23:00 +22°C° 0.7 mm 0 mps 699 mmHg 86%
    Show more